Terminal Aerodrome Forecast
Issued by NWS Charleston, WV

Current Version | Previous Version | Text Only | Print | Product List | Glossary Off
Versions: 1 2 3 4 5 6 7 8 9 10 11 12 13 14 15 16 17 18 19 20 21 22 23 24 25

000
FTUS41 KRLX 280500
TAFEKN
TAF
KEKN 280538Z 2806/2906 22007KT 6SM -SHRA SCT021 BKN035 OVC070
     FM280730 27010G15KT P6SM BKN017
     FM281500 28012G18KT P6SM BKN025
     FM281700 28012G18KT P6SM VCTS BKN035CB
     FM281900 28011G17KT 4SM SHRA VCTS BKN035CB
     FM282300 29007KT P6SM BKN040
     FM290500 30003KT 6SM BR BKN050=

USA.gov is the U.S. government's official web portal to all federal, state and local government web resources and services.